Notices

What's New in latest Release from April 7th, 2021:

- Updated Glossary, including Speed of Maximum Gust, and Total Hourly Precipitation

- Updated national and regional climate services offices contacts and prices information

- Addition of station inventory lists for 1981-2010, 1971-2000, and 1961-1990 Normals.

If you haven't already, please take our survey and provide feedback about our website: https://eccc.sondage-survey.ca/f/LanguageSelection.aspx?s=442ca660-fcf1-47c0-95a9-59707d6fd709

Hourly Data Report for April 02, 2017

KUGAARUK CLIMATE
NUNAVUT

68°32'15.060" N
89°47'47.020" W
15.80 m
2303094
71407
NBB

Download Data

Hourly Data (April 2017)
Hourly Data Report for April 2, 2017
TIME
LST
Temp Definition
°C
Dew Point Definition
°C
Rel Hum Definition
%
Precip. Amount Definition
mm

Wind Dir Definition
10's deg

Wind Spd Definition
km/h
Visibility Definition
km
Stn Press Definition
kPa
Hmdx Definition


Wind Chill Definition


Weather Definition


00:00 -11.7 -17.2 64 0.0 16 20   101.52   -20 LegendNANA
01:00 -11.4 -17.4 61 0.0 16 20   101.49   -20 LegendNANA
02:00 -11.4 -17.6 60 0.0 17 26   101.46   -21 LegendNANA
03:00 -11.6 -17.3 63 0.0 17 20   101.41   -20 LegendNANA
04:00 -11.5 -17.6 61 0.0 16 18   101.35   -19 LegendNANA
05:00 -12.7 -17.9 65 0.0 17 21   101.34   -21 LegendNANA
06:00 -12.3 -18.2 62 0.0 15 19   101.27   -21 LegendNANA
07:00 -14.6 -17.7 77 0.0 7 21   101.25   -24 LegendNANA
08:00 -13.4 -19.1 63 0.0 11 14   101.20   -21 LegendNANA
09:00 -12.8 -20.8 51 0.0 33 6   101.19   -17 LegendNANA
10:00 -11.6 -19.8 51 0.0 7 16   101.15   -19 LegendNANA
11:00 -13.7 -19.0 64 0.0 8 23   101.14   -23 LegendNANA
12:00 -13.7 -19.0 64 0.0 11 26   101.10   -24 LegendNANA
13:00 -14.3 -19.5 65 0.0 11 27   101.08   -25 LegendNANA
14:00 -14.0 -18.4 69 0.0 10 26   101.03   -24 LegendNANA
15:00 -13.5 -17.4 72 0.0 12 18   101.00   -22 LegendNANA
16:00 -13.9 -17.1 77 0.0 9 18   100.97   -22 LegendNANA
17:00 -13.2 -15.6 82 0.0 8 13   100.89   -20 LegendNANA
18:00 -10.6 -12.7 85 0.0 17 37   100.80   -21 LegendNANA
19:00 -13.2 -15.2 85 0.0 15 35   100.80   -24 LegendNANA
20:00 -10.5 -11.9 89 0.0 16 27   100.73   -20 LegendNANA
21:00 -10.4 -12.6 84 0.0 19 34   100.69   -21 LegendNANA
22:00 -10.8 -13.2 82 0.0 18 40   100.65   -22 LegendNANA
23:00 -10.9 -13.5 81 0.0 19 40   100.62   -22 LegendNANA

Notes on Data Quality.

Legend

  • E = Estimated
  • M = Missing
  • NA = Not Available*
  • [empty] = Indicates an unobserved value
Date modified: